Location: Newark
(54.8972°N, 99.8189°W)
Time: 22:06:34
(UTC+00:00)

Transit 2A - Pass Details

Date: 15 November 2019
Orbit: 602 x 957 km, 66.7° (Epoch: 14 December)

Event Time Altitude Azimuth Distance (km) Brightness Sun altitude
Rises 02:39:28 0° 316° (NW) 2,908 9.8 -34.2°
Reaches altitude 10° 02:41:53 10° 324° (NW) 1,976 8.7 -34.6°
Enters shadow 02:42:39 14° 329° (NNW) 1,698 8.3 -34.7°
